• Em Portugal
  • Lista de países
  • Para 7 dias
  • Temperatura da água
  • Mapas de satélite
  • Mapa do tempo
  • Widgets de tempo
  • user-avatar
    Iniciar Sessão

    Previsão horária em Garani

    Hoje, 22 Setembro, Sábado

    Tempo Temperatura Precipitação Vento Pressão Humidade
    00:00 +19°C° 0 mm 5 m/s 743 mmHg 70%
    01:00 +17°C° 0 mm 5 m/s 742 mmHg 70%
    02:00 +17°C° 0 mm 5 m/s 741 mmHg 71%
    03:00 +17°C° 0 mm 5 m/s 741 mmHg 72%
    04:00 +16°C° 0 mm 5 m/s 741 mmHg 72%
    05:00 +16°C° 0 mm 6 m/s 740 mmHg 73%
    06:00 +16°C° 0.1 mm 5 m/s 741 mmHg 75%
    07:00 +16°C° 0.1 mm 5 m/s 741 mmHg 77%
    08:00 +16°C° 0.1 mm 5 m/s 741 mmHg 79%
    09:00 +15°C° 1.1 mm 5 m/s 742 mmHg 82%
    10:00 +14°C° 1.1 mm 5 m/s 742 mmHg 85%
    11:00 +12°C° 1.1 mm 5 m/s 743 mmHg 89%
    12:00 +12°C° 0.6 mm 4 m/s 743 mmHg 87%
    13:00 +12°C° 0.6 mm 4 m/s 743 mmHg 86%
    14:00 +12°C° 0.6 mm 4 m/s 744 mmHg 85%
    15:00 +12°C° 0.1 mm 4 m/s 744 mmHg 84%
    16:00 +12°C° 0.1 mm 3 m/s 744 mmHg 83%
    17:00 +12°C° 0.1 mm 3 m/s 744 mmHg 82%
    18:00 +11°C° 0 mm 3 m/s 744 mmHg 83%
    19:00 +10°C° 0 mm 3 m/s 744 mmHg 85%
    20:00 +10°C° 0 mm 3 m/s 744 mmHg 86%
    21:00 +9°C° 0 mm 3 m/s 744 mmHg 88%
    22:00 +9°C° 0 mm 3 m/s 744 mmHg 89%
    23:00 +9°C° 0 mm 3 m/s 744 mmHg 91%

    Amanhã, 23 Setembro, Domingo

    Tempo Temperatura Precipitação Vento Pressão Humidade
    00:00 +8°C° 0 mm 3 m/s 744 mmHg 91%
    01:00 +8°C° 0 mm 3 m/s 743 mmHg 92%
    02:00 +8°C° 0 mm 3 m/s 743 mmHg 93%
    03:00 +8°C° 0 mm 3 m/s 743 mmHg 92%
    04:00 +8°C° 0 mm 3 m/s 743 mmHg 92%
    05:00 +7°C° 0 mm 4 m/s 743 mmHg 92%
    06:00 +7°C° 0 mm 4 m/s 743 mmHg 89%
    07:00 +8°C° 0 mm 5 m/s 743 mmHg 87%
    08:00 +8°C° 0 mm 5 m/s 743 mmHg 85%
    09:00 +9°C° 0 mm 5 m/s 743 mmHg 79%
    10:00 +11°C° 0 mm 6 m/s 743 mmHg 74%
    11:00 +13°C° 0 mm 6 m/s 743 mmHg 69%
    12:00 +13°C° 0.2 mm 6 m/s 742 mmHg 66%
    13:00 +14°C° 0.2 mm 6 m/s 742 mmHg 64%
    14:00 +14°C° 0.2 mm 6 m/s 742 mmHg 61%
    15:00 +13°C° 0.1 mm 6 m/s 742 mmHg 64%
    16:00 +13°C° 0.1 mm 5 m/s 742 mmHg 67%
    17:00 +12°C° 0.1 mm 4 m/s 742 mmHg 70%
    18:00 +11°C° 0 mm 3 m/s 742 mmHg 74%
    19:00 +10°C° 0 mm 3 m/s 742 mmHg 78%
    20:00 +9°C° 0 mm 3 m/s 741 mmHg 83%
    21:00 +8°C° 0 mm 3 m/s 741 mmHg 83%
    22:00 +8°C° 0 mm 2 m/s 741 mmHg 84%
    23:00 +8°C° 0 mm 2 m/s 741 mmHg 84%

    Depois de amanhã, 24 Setembro, Segunda-feira

    Tempo Temperatura Precipitação Vento Pressão Humidade
    00:00 +8°C° 0 mm 2 m/s 741 mmHg 85%
    01:00 +8°C° 0 mm 2 m/s 740 mmHg 85%
    02:00 +8°C° 0 mm 2 m/s 740 mmHg 86%
    03:00 +8°C° 0.1 mm 2 m/s 739 mmHg 87%
    04:00 +9°C° 0.1 mm 1 m/s 738 mmHg 87%
    05:00 +9°C° 0.1 mm 1 m/s 738 mmHg 88%
    06:00 +8°C° 0.6 mm 2 m/s 737 mmHg 90%
    07:00 +8°C° 0.6 mm 2 m/s 736 mmHg 91%
    08:00 +8°C° 0.6 mm 2 m/s 736 mmHg 92%
    09:00 +8°C° 0.7 mm 3 m/s 736 mmHg 91%
    10:00 +9°C° 0.7 mm 3 m/s 735 mmHg 90%
    11:00 +8°C° 0.7 mm 4 m/s 735 mmHg 89%
    12:00 +8°C° 0.5 mm 4 m/s 735 mmHg 86%
    13:00 +10°C° 0.5 mm 4 m/s 735 mmHg 84%
    14:00 +10°C° 0.5 mm 4 m/s 736 mmHg 82%
    15:00 +10°C° 0.3 mm 4 m/s 736 mmHg 82%
    16:00 +9°C° 0.3 mm 5 m/s 737 mmHg 83%
    17:00 +9°C° 0.3 mm 5 m/s 738 mmHg 83%
    18:00 +8°C° 0.2 mm 5 m/s 738 mmHg 84%
    19:00 +7°C° 0.2 mm 5 m/s 739 mmHg 85%
    20:00 +7°C° 0.2 mm 5 m/s 740 mmHg 86%
    21:00 +6°C° 0 mm 5 m/s 741 mmHg 86%
    22:00 +6°C° 0 mm 5 m/s 741 mmHg 85%
    23:00 +4°C° 0 mm 6 m/s 742 mmHg 85%

    25 Setembro, Terça-feira

    Tempo Temperatura Precipitação Vento Pressão Humidade
    00:00 +4°C° 0 mm 6 m/s 743 mmHg 85%
    01:00 +3°C° 0 mm 5 m/s 743 mmHg 86%
    02:00 +3°C° 0 mm 5 m/s 744 mmHg 87%
    03:00 +3°C° 0 mm 5 m/s 744 mmHg 86%
    04:00 +2°C° 0 mm 5 m/s 745 mmHg 85%
    05:00 +2°C° 0 mm 5 m/s 745 mmHg 85%
    06:00 +3°C° 0 mm 6 m/s 746 mmHg 82%
    07:00 +3°C° 0 mm 6 m/s 746 mmHg 79%
    08:00 +4°C° 0 mm 6 m/s 747 mmHg 76%
    09:00 +5°C° 0 mm 7 m/s 748 mmHg 69%
    10:00 +6°C° 0 mm 7 m/s 748 mmHg 62%
    11:00 +8°C° 0 mm 7 m/s 749 mmHg 56%
    12:00 +8°C° 0.1 mm 7 m/s 749 mmHg 53%
    13:00 +9°C° 0.1 mm 7 m/s 750 mmHg 50%
    14:00 +9°C° 0.1 mm 7 m/s 750 mmHg 48%
    15:00 +9°C° 0 mm 6 m/s 751 mmHg 50%
    16:00 +8°C° 0 mm 5 m/s 751 mmHg 53%
    17:00 +8°C° 0 mm 4 m/s 752 mmHg 56%
    18:00 +7°C° 0 mm 4 m/s 752 mmHg 61%
    19:00 +6°C° 0 mm 4 m/s 753 mmHg 65%
    20:00 +5°C° 0 mm 4 m/s 753 mmHg 70%
    21:00 +4°C° 0 mm 4 m/s 754 mmHg 70%
    22:00 +4°C° 0 mm 4 m/s 754 mmHg 70%
    23:00 +4°C° 0 mm 4 m/s 754 mmHg 71%

    26 Setembro, Quarta-feira

    Tempo Temperatura Precipitação Vento Pressão Humidade
    00:00 +4°C° 0 mm 4 m/s 753 mmHg 72%
    01:00 +4°C° 0 mm 4 m/s 753 mmHg 73%
    02:00 +3°C° 0 mm 5 m/s 753 mmHg 75%
    03:00 +5°C° 0 mm 5 m/s 753 mmHg 78%
    04:00 +5°C° 0 mm 5 m/s 752 mmHg 82%
    05:00 +5°C° 0 mm 6 m/s 752 mmHg 85%
    06:00 +7°C° 0 mm 6 m/s 752 mmHg 85%
    07:00 +7°C° 0 mm 6 m/s 751 mmHg 85%
    08:00 +8°C° 0 mm 7 m/s 751 mmHg 85%
    09:00 +8°C° 0.4 mm 7 m/s 751 mmHg 86%
    10:00 +8°C° 0.4 mm 7 m/s 750 mmHg 86%
    11:00 +9°C° 0.4 mm 7 m/s 750 mmHg 87%
    12:00 +9°C° 0.7 mm 7 m/s 750 mmHg 87%
    13:00 +8°C° 0.7 mm 7 m/s 749 mmHg 88%
    14:00 +8°C° 0.7 mm 7 m/s 749 mmHg 89%
    15:00 +8°C° 0.7 mm 7 m/s 748 mmHg 88%
    16:00 +7°C° 0.7 mm 8 m/s 748 mmHg 88%
    17:00 +7°C° 0.7 mm 8 m/s 747 mmHg 88%
    18:00 +7°C° 0.4 mm 8 m/s 747 mmHg 88%
    19:00 +6°C° 0.4 mm 8 m/s 746 mmHg 87%
    20:00 +6°C° 0.4 mm 8 m/s 746 mmHg 87%
    21:00 +6°C° 0.2 mm 9 m/s 745 mmHg 87%
    22:00 +6°C° 0.2 mm 9 m/s 745 mmHg 87%
    23:00 +6°C° 0.2 mm 9 m/s 744 mmHg 87%

    27 Setembro, Quinta-feira

    Tempo Temperatura Precipitação Vento Pressão Humidade
    00:00 +7°C° 0.2 mm 9 m/s 744 mmHg 88%
    01:00 +7°C° 0.2 mm 8 m/s 743 mmHg 88%
    02:00 +9°C° 0.2 mm 8 m/s 743 mmHg 89%
    03:00 +9°C° 0.2 mm 8 m/s 742 mmHg 89%
    04:00 +10°C° 0.2 mm 7 m/s 742 mmHg 90%
    05:00 +11°C° 0.2 mm 7 m/s 742 mmHg 91%
    06:00 +11°C° 0.5 mm 7 m/s 742 mmHg 91%
    07:00 +11°C° 0.5 mm 7 m/s 741 mmHg 91%
    08:00 +11°C° 0.5 mm 7 m/s 741 mmHg 91%
    09:00 +11°C° 0.5 mm 7 m/s 741 mmHg 91%
    10:00 +10°C° 0.5 mm 8 m/s 740 mmHg 90%
    11:00 +10°C° 0.5 mm 8 m/s 740 mmHg 90%
    12:00 +11°C° 0.5 mm 8 m/s 740 mmHg 89%
    13:00 +11°C° 0.5 mm 8 m/s 739 mmHg 89%
    14:00 +12°C° 0.5 mm 8 m/s 739 mmHg 89%
    15:00 +12°C° 0.9 mm 8 m/s 739 mmHg 89%
    16:00 +12°C° 0.9 mm 7 m/s 738 mmHg 90%
    17:00 +12°C° 0.9 mm 7 m/s 738 mmHg 90%
    18:00 +12°C° 1.1 mm 7 m/s 737 mmHg 89%
    19:00 +12°C° 1.1 mm 8 m/s 737 mmHg 89%
    20:00 +12°C° 1.1 mm 8 m/s 737 mmHg 88%
    21:00 +11°C° 1.3 mm 8 m/s 737 mmHg 89%
    22:00 +11°C° 1.3 mm 7 m/s 736 mmHg 89%
    23:00 +10°C° 1.3 mm 7 m/s 736 mmHg 90%
    Mostrar mais